OneWeb SL0272

operational
NORAD ID: 48990 Int'l Des: 2021-060 Owner: ONEWEBN Country: UK Constellation: oneweb
LEOCIRCULARPOLARONEWEB_TYPE

About OneWeb SL0272

Description loading...

Live Position

Loading 3D Globe...

Upcoming Passes

Altitude History

Altitude vs Time

uPlot chart will show altitude changes over time

Two-Line Element Set

1 48990U 21060Z 25306.41807539 .00000006 00000-0 -16762-4 0 9995
2 48990 87.8983 273.9576 0001891 92.9956 267.1391 13.16596393209773
Epoch: Nov 2, 2025 • Age: 36 hours

Current Status

Altitude 1206.2 km
Velocity 7.25 km/s
Sub-Earth Point -21.19°S, 106.66°W
Launch Date Jul 1, 2021
Age 4.3 years
Type internet

Technical Details

Classification Payload
Mass 148.00 kg
Dry Mass 140.00 kg
Total Mass 148.00 kg
Length 1.30 m
Diameter 1.00 m
Span 5.00 m
Shape Trapezoid+2 pan
Manufacturer ONEWUS
Bus Type ARROW
Phase Status In Orbit
Owner/State ONEWEBN/UK

Large Constellations

Loading constellations...